This is the latest recevied weather packets stored in our database for station/object KM4CNW. If no packets are shown the sender has not sent any weather packets the latest 10 day(s).
| Time | Temp. | Humidity | Pressure | Rain* | Wind** | Luminosity | Snow |
|---|---|---|---|---|---|---|---|
| 1777665796 | 18.33° C | 46% | 1006.9 hPa | 0 mm | - | 512 W/m² | - |
| 1777665189 | 17.78° C | 48% | 1007.4 hPa | 0 mm | - | 413 W/m² | - |
| 1777664278 | 18.33° C | 45% | 1007.8 hPa | 0 mm | - | 464 W/m² | - |
| 1777663977 | 18.89° C | 46% | 1007.8 hPa | 0 mm | - | 450 W/m² | - |
| 1777663674 | 18.89° C | 47% | 1007.7 hPa | 0 mm | - | 434 W/m² | - |
| 1777663370 | 18.33° C | 48% | 1007.9 hPa | 0 mm | - | 371 W/m² | - |
| 1777663068 | 18.33° C | 46% | 1008.1 hPa | 0 mm | - | 317 W/m² | - |
| 1777662765 | 18.33° C | 45% | 1007.9 hPa | 0 mm | - | 483 W/m² | - |
| 1777660941 | 20° C | 42% | 1008 hPa | 0 mm | - | 889 W/m² | - |
| 1777660637 | 20° C | 40% | 1008 hPa | 0 mm | - | 511 W/m² | - |
| 1777660334 | 19.44° C | 43% | 1008.1 hPa | 0 mm | - | 649 W/m² | - |
| 1777660030 | 18.89° C | 42% | 1008.1 hPa | 0 mm | - | 830 W/m² | - |
| 1777659424 | 18.89° C | 43% | 1008.3 hPa | 0 mm | - | 344 W/m² | - |
| 1777659121 | 20° C | 40% | 1008.3 hPa | 0 mm | - | 329 W/m² | - |
| 1777658819 | 20° C | 41% | 1008.5 hPa | 0 mm | - | 861 W/m² | - |
| 1777658515 | 19.44° C | 42% | 1008.4 hPa | 0 mm | - | 601 W/m² | - |
| 1777657909 | 18.89° C | 41% | 1008.4 hPa | 0 mm | - | 346 W/m² | - |
| 1777657000 | 18.89° C | 43% | 1008.6 hPa | 0 mm | - | 920 W/m² | - |
| 1777656697 | 18.89° C | 44% | 1008.5 hPa | 0 mm | - | 935 W/m² | - |
| 1777656393 | 18.89° C | 43% | 1008.4 hPa | 0 mm | - | 915 W/m² | - |
| 1777656088 | 18.89° C | 43% | 1008.8 hPa | 0 mm | - | 918 W/m² | - |
| 1777655784 | 18.33° C | 42% | 1008.8 hPa | 0 mm | - | 904 W/m² | - |
| 1777655481 | 17.78° C | 43% | 1009.1 hPa | 0 mm | - | 858 W/m² | - |
| 1777655178 | 18.33° C | 43% | 1009.2 hPa | 0 mm | - | 920 W/m² | - |
| 1777654875 | 17.78° C | 46% | 1009.2 hPa | 0 mm | - | 979 W/m² | - |
* Rain latest hour (hover to see other rain measurements)
** Current wind speed in m/s (hover to see current wind gust speed)